Regional Weather Roundup
Issued by NWS Wakefield, VA

Home | Current Version | Previous Version | Graphics & Text | Print | Product List | Glossary On
Versions: 1 2 3 4 5 6 7 8 9 10 11 12 13 14 15 16 17 18 19 20 21 22 23 24 25 26 27 28 29 30 31 32 33 34 35 36 37 38 39 40 41 42 43 44 45 46 47 48 49 50
000
ASUS41 KAKQ 160110
RWRAKQ

REGIONAL WEATHER ROUNDUP
NATIONAL WEATHER SERVICE WAKEFIELD VA
900 PM EDT MON SEP 15 2014

Note: "fair" indicates few or no clouds below 12,000 feet with no
significant weather and/or obstructions to visibility. * = Denotes
station may not report precipitation (e.g., rain,snow,etc.),
thunder or fog.

VAZ042-051-052>054-056-160200-
NORTHERN VIRGINIA

CITY           SKY/WX    TMP DP  RH WIND       PRES   REMARKS
WASH NATIONAL  MOCLDY    70  56  61 S12       30.10F
DULLES         CLOUDY    65  55  70 S3        30.10F
FORT BELVOIR   MOCLDY    63  58  85 E5        30.11S
QUANTICO       MOCLDY    68  60  75 S7        30.11S
FREDERICKSBRG* MOCLDY    66  60  80 CALM      30.10S
STAFFORD*      MOCLDY    61  61 100 CALM      30.15R
WARRENTON      MOCLDY    65  63  90 SE3       30.11R
CULPEPER*      MOCLDY   N/A N/A N/A CALM      30.11S
MANASSAS*      NOT AVBL
LEESBURG*      MOCLDY    64  59  82 S5        30.10F
WINCHESTER     CLOUDY    61  54  77 S3        30.08F
FRONT ROYAL*   MOCLDY    64  55  72 S3        30.08S
LURAY*         MOCLDY    64  59  82 CALM      30.10S
$$

VAZ048-049-060>072-079>083-160200-
CENTRAL AND SOUTH CENTRAL VIRGINIA...AND NORTH CENTRAL NORTH CAROLINA

CITY           SKY/WX    TMP DP  RH WIND       PRES   REMARKS
RICHMOND       PTCLDY    66  59  78 S6        30.12R
CHESTERFIELD*  PTCLDY   N/A N/A N/A CALM      30.13S
PETERSBURG*    PTCLDY    62  61  94 CALM      30.13F
HANOVER        PTCLDY    66  60  81 S5        30.13S
TAPPAHANNOCK*  PTCLDY    67  59  74 S5        30.12S
CHARLOTTSVILLE CLOUDY    68  60  75 S10       30.10S
ORANGE*        MOCLDY    64  59  82 S3        30.12S
LOUISA*        MOCLDY    66  61  82 S5        30.11S
FARMVILLE*     MOCLDY    68  63  83 S3        30.11S
CREWE*         MOCLDY    67  64  93 CALM      30.13R
FORT PICKETT*  MOCLDY    64  62  93 CALM      30.13S
LUNENBURG*     MOCLDY    66  65  94 S3        30.13S
SOUTH HILL*    MOCLDY    66  66 100 CALM      30.19R
LAWRENCEVILLE* MOCLDY    65  64  97 CALM      30.14S
ROANOKE RAPIDS CLOUDY    68  63  83 S3        30.13F
RALEIGH        CLOUDY    70  65  84 CALM      30.15R
$$

VAZ088>098-160200-
SOUTHEAST VIRGINIA

CITY           SKY/WX    TMP DP  RH WIND       PRES   REMARKS
NORFOLK        CLOUDY    68  58  70 S3        30.14R
VIRGINIA BEACH CLOUDY    69  58  67 S5        30.13S
NORFOLK NAVAL  CLOUDY    69  59  70 SE7       30.14S
WEST POINT*    NOT AVBL
NEWPORT NEWS   MOCLDY    72  59  63 S6        30.13S
LANGLEY AFB    CLOUDY    68  60  75 S6        30.13R
FORT EUSTIS    MOCLDY    68  60  74 S7        30.12R
WILLIAMSBURG*  MOCLDY    72  63  73 S6        30.14R
HR EXEC AP*    CLOUDY    66  59  77 SE6       30.15F
FRANKLIN*        N/A     66  63  88 S5        30.13S
WAKEFIELD      MOCLDY    66  63  90 CALM      30.13R
$$

VAZ020-022-025-037-045-160200-
WEST CENTRAL AND SOUTHWEST VIRGINIA

CITY           SKY/WX    TMP DP  RH WIND       PRES   REMARKS
STAUNTON*      MOCLDY    67  58  74 S6        30.12S
HOT SPRINGS VA CLOUDY    58  51  76 SW6       30.21S
LYNCHBURG      CLOUDY    67  64  90 S8        30.14R
DANVILLE       CLOUDY    69  65  86 CALM      30.14R
SOUTH BOSTON*  NOT AVBL
MARTINSVILLE   CLOUDY    67  65  94 CALM      30.16F
ROANOKE        CLOUDY    69  63  81 SE7       30.14S
BLACKSBURG     CLOUDY    66  64  94 CALM      30.17F
DUBLIN*        CLOUDY    67  64  93 CALM      30.14F
MARION*        CLOUDY    66  62  87 W6        30.20R
HILLSVILLE*    CLOUDY    61  60  99 CALM      30.18F FOG
RICHLANDS*     CLOUDY    68  64  85 W5        30.19S
WISE*          MOCLDY    63  63 100 CALM      30.21R
ABINGDON*      CLOUDY    67  65  94 CALM      30.16S
$$

MDZ021>025-VAZ099-100-160200-
SOUTHERN MARYLAND AND THE DELMARVA PENINSULA

CITY           SKY/WX    TMP DP  RH WIND       PRES   REMARKS
PATUXENT RIVER MOCLDY    65  56  72 S3        30.12R
BAY BRIDGE APT   N/A     64  54  68 SE3       30.11S
LEONARDTOWN    PTCLDY    63  55  77 CALM      30.14S
DOVER          PTCLDY    63  54  73 S5        30.10S
GEORGETOWN     MOCLDY    61  54  77 SE5       30.14R
EASTON         MOCLDY    64  57  77 CALM      30.16R
CAMBRIDGE      PTCLDY    63  57  82 CALM      30.12S
SALISBURY        N/A    N/A N/A N/A MISG        N/A
OCEAN CITY     MOCLDY    59  55  87 CALM      30.13S
WALLOPS ISLAND CLOUDY    65  57  75 CALM      30.14R
ACCOMACK*      CLOUDY    61  55  82 CALM      30.13S
$$

NCZ012>017-030>032-160200-
EASTERN NORTH CAROLINA

CITY           SKY/WX    TMP DP  RH WIND       PRES   REMARKS
ELIZABETH CITY CLOUDY    69  61  75 E5        30.14R
AHOSKIE*       CLOUDY    68  66  92 CALM      30.15R
EDENTON*       CLOUDY    70  66  88 CALM      30.14S
CURRITUCK*     CLOUDY    69  61  76 CALM      30.15R
KILL DEVIL HLS CLOUDY    71  59  66 CALM      30.13R
MANTEO         CLOUDY    70  60  69 NE5       30.14R
CAPE HATTERAS  PTCLDY    68  63  84 NE5       30.13R
TARBORO*       CLOUDY    70  67  91 CALM      30.15S
GOLDSBORO      CLOUDY    72  71  98 S2        30.13R
WASHINGTON     CLOUDY    70  67  90 CALM      30.15R
GREENVILLE     MOCLDY    72  68  88 CALM      30.16R
NEW BERN       CLOUDY    74  67  78 CALM      30.15R
WILMINGTON     MOCLDY    72  68  87 CALM      30.14R
$$

VAZ048-160200-
ELSEWHERE

CITY           SKY/WX    TMP DP  RH WIND       PRES   REMARKS
HARRISBURG PA  MOCLDY    63  55  75 S3        30.08S
BALTIMORE      CLOUDY    64  54  69 CALM      30.10F
ANNAPOLIS      CLOUDY    65  56  72 S6        30.10F
ANDREWS AFB    MOCLDY    63  57  80 SE9       30.10F
WILMINGTON DE  MOCLDY    64  51  62 CALM      30.11F
PHILADELPHIA   MOCLDY    67  50  54 S6        30.11F
WILDWOOD NJ*   PTCLDY    59  52  77 CALM      30.14R
ATLANTIC CITY  CLEAR     56  54  93 CALM      30.12F
HENDERSON NC   MOCLDY    67  64  90 S3        30.15R
GREENSBORO     CLOUDY    70  65  84 SW7       30.15R
ROCKY MOUNT    CLOUDY    70  67  90 CALM      30.14S
FAYETTEVILLE   CLOUDY    74  67  78 W3        30.14R
CHARLOTTE      LGT RAIN  73  66  78 SE6       30.15F
$$

VAZ100-160200-
MARINE

STATION/POSITION TIME  TEMP    WIND        PRES    WAVE   SWELL
                       AIR SEA DIR/SP/G            HT/PER HT/PER
                 (UTC) (F)     (DEG/KT/KT) (MB)    (FT/S) (FT/S)
44066 TX TWR #4  0100   65 74   10/  6/ 10 1020.2R   2/ 7   2/ 7
CAPE MAY NJ      0100   62 76  120/  3/  4 1019.6S
LEWES DE         0100   65 72  190/  4/  5 1020.0R
15NM E FENWICK I 0100   67 72              1020.2F   2/ 7
OCEAN-CITY-INLET 0100   67 72  180/  3/  6 1019.9S
WACHAPREAGUE VA  0100   67 75  230/  2/  3 1020.4S
THOMAS POINT MD  0100   70 75  170/ 13/ 15 1020.2F
GOOSES REEF MD   0100   70     190/ 10/ 12 1020.2S
COVE POINT MD    0100   68     210/  8/  9 1019.9R
SOLOMONS ISLAND  0100      77                N/A
BISHOPS HEAD MD  0100   70 74  190/  7/  8 1019.7R
PINEY POINT MD   0100          180/ 11/ 13   N/A
POTOMAC MD       0100   71     190/ 10/ 12 1019.3R
CAMBRIDGE MD     0100   66 76  180/  4/  4 1019.7S
LEWISETTA VA     0100   67 74  180/  4/  7 1019.5S
RAPPAHANNOCK LGT 0100          160/ 12/ 14 1020.7S
STINGRAY PT      0100   70     170/ 12/ 16   N/A
YORK RVR RNG VA  0100   70     180/ 11/ 15 1019.7R
YORKTOWN VA      0100   69 77  170/  7/  8 1019.8S
JAMESTOWN VA     0100   68     190/ 10/ 12   N/A
DOMINION TERM VA 0100   69     150/ 12/ 14 1020.2S
KIPTOPEKE VA     0100      78  140/  6/  9   N/A
CHES BAY BRIDGE  0100   70 76  140/  7/  9 1020.0F
CAPE HENRY VA    0100   68     170/  4/  5 1019.4R
CHESAPEAKE LGHT  0000   69     120/  5/  6 1021.2R
WILLOUBY STN VA  0100   69     120/  7/  9 1019.0F
S CRANEY ISL VA  0100          190/  4/  7 1020.0F
CAPE HENRY BUOY  0000      76                N/A     2/13
1ST LANDING BUOY 0100   70     170/  8/ 10 1020.2S
CAPE CHARLES BUO 0100      75                N/A     2/ 8   2/ 8
OFFSHORE WE BUOY 0100      75                N/A     2/ 8   2/ 8
64NM E OF VA BCH 0100   71 79   50/  8/ 10 1020.1R   2/ 7   2/ 7
DUCK PIER NC     0100   71 76   80/  6/  7 1020.0R
44100 DUCK FRF   0100      75                N/A     2/ 8
44056 DUCK FRF   0100                        N/A     2/ 8   2/13
OREGON INLET NC  0100   71 74   50/  6/  8 1020.4R
HATTERAS NC      0100   72 77   40/  4/  6 1020.7R
DIAMOND SHLS NC  0100   73     360/  8/ 12 1019.9R   3/ 8   3/ 8
CAPE LOOKOUT NC  0000   75      60/  6/  6 1019.8R
$$


USA.gov is the U.S. government's official web portal to all federal, state and local government web resources and services.